This is the latest recevied weather packets stored in our database for station/object LU4EGV-13. If no packets are shown the sender has not sent any weather packets the latest 10 day(s).
| Time | Temp. | Humidity | Pressure | Rain* | Wind** | Luminosity | Snow |
|---|---|---|---|---|---|---|---|
| 1777691211 | 15° C | 60% | 1014.8 hPa | 0 mm | - | - | - |
| 1777690614 | 15° C | 60% | 1014.5 hPa | 0 mm | - | - | - |
| 1777689999 | 15.56° C | 60% | 1014.6 hPa | 0 mm | - | - | - |
| 1777689392 | 15.56° C | 61% | 1014.1 hPa | 0 mm | - | - | - |
| 1777688786 | 16.11° C | 60% | 1014.3 hPa | 0 mm | - | - | - |
| 1777688183 | 16.67° C | 60% | 1013.8 hPa | 0 mm | - | - | - |
| 1777687574 | 16.67° C | 61% | 1013.6 hPa | 0 mm | - | - | - |
| 1777687332 | 16.67° C | 62% | 1013.2 hPa | 0 mm | - | - | - |
| 1777687265 | 17.22° C | 65% | 1012.8 hPa | 0 mm | - | - | - |
| 1777685755 | 17.22° C | 69% | 1012.6 hPa | 0 mm | - | - | - |
| 1777685149 | 17.22° C | 73% | 1012.4 hPa | 0 mm | - | - | - |
| 1777684543 | 17.78° C | 74% | 1012.3 hPa | 0 mm | - | - | - |
| 1777683938 | 17.78° C | 75% | 1012.1 hPa | 0 mm | - | - | - |
| 1777683346 | 17.78° C | 76% | 1011.7 hPa | 0 mm | - | - | - |
| 1777682743 | 18.33° C | 75% | 1011.4 hPa | 0 mm | - | - | - |
| 1777682153 | 18.33° C | 74% | 1011.2 hPa | 0 mm | - | - | - |
| 1777681521 | 18.89° C | 74% | 1011 hPa | 0 mm | - | - | - |
| 1777680925 | 19.44° C | 72% | 1011 hPa | 0 mm | - | - | - |
| 1777680300 | 19.44° C | 72% | 1010.9 hPa | 0 mm | - | - | - |
| 1777679707 | 20° C | 71% | 1010.5 hPa | 0 mm | - | - | - |
| 1777679120 | 20° C | 70% | 1010.6 hPa | 0 mm | - | - | - |
| 1777678500 | 20.56° C | 69% | 1010.3 hPa | 0 mm | - | - | - |
| 1777678222 | 20.56° C | 68% | 1010.4 hPa | 0 mm | - | - | - |
| 1777677921 | 20.56° C | 68% | 1010.4 hPa | 0 mm | - | - | - |
| 1777677269 | 20.56° C | 68% | 1010 hPa | 0 mm | - | - | - |
* Rain latest hour (hover to see other rain measurements)
** Current wind speed in m/s (hover to see current wind gust speed)